Powrót do katalogu

ONEWEB-0390

AktywnyŁącznośćPO
NORAD 50470·PAYLOAD·🇬🇧 United Kingdom

Wystrzelony Dec 27, 2021 z Baikonur Cosmodrome

Loading…

Następne Przeloty (najbliższe 24 godziny)

TLE

ŚwieżeSource: CelesTrak SupGP

Epoka: Sep 14, 2026, 23:31 UTC

1 50470C 21132B   26257.98002732 -.00000393  00000+0 -10137-2 0  2575
2 50470  87.9197 348.0375 0001648 105.3210   4.2030 13.17647572    13

Śledź ONEWEB-0390 w czasie rzeczywistym z AllMySat

Download on the App Store